Location: Bruch
(44.2051°N, 0.4120°E)
Time: 10:01:38
(UTC+00:00)

CZ-4B R/B - Pass Details

Date: 29 November 2020
Orbit: 485 x 653 km, 97.9° (Epoch: 25 January)

Event Time Altitude Azimuth Distance (km) Brightness Sun altitude
Rises 05:09:04 0° 14° (NNE) 2,987 6.6 -21.4°
Reaches altitude 10° 05:11:20 10° 16° (NNE) 2,067 5.8 -21.0°
Maximum altitude 05:15:51 75° 102° (ESE) 668 3.3 -20.2°
Drops below altitude 10° 05:20:14 10° 188° (S) 1,998 5.7 -19.5°
Sets 05:22:23 0° 190° (S) 2,879 6.5 -19.1°
